This is the latest recevied weather packets stored in our database for station/object DM8MH-13. If no packets are shown the sender has not sent any weather packets the latest 10 day(s).
| Time | Temp. | Humidity | Pressure | Rain* | Wind** | Luminosity | Snow |
|---|---|---|---|---|---|---|---|
| 1788013271 | 26.11° C | 47% | 1012 hPa | 0 mm | - | 600 W/m² | - |
| 1788012671 | 26.11° C | 48% | 1012.2 hPa | 0 mm | - | 563 W/m² | - |
| 1788012071 | 26.11° C | 48% | 1012.1 hPa | 0 mm | - | 666 W/m² | - |
| 1788011471 | 25.56° C | 48% | 1012.2 hPa | 0 mm | - | 151 W/m² | - |
| 1788010871 | 25.56° C | 47% | 1012.1 hPa | 0 mm | - | 688 W/m² | - |
| 1788010272 | 25.56° C | 48% | 1012.3 hPa | 0 mm | - | 651 W/m² | - |
| 1788009671 | 25.56° C | 49% | 1012.4 hPa | 0 mm | - | 693 W/m² | - |
| 1788009072 | 25° C | 49% | 1012.5 hPa | 0 mm | - | 211 W/m² | - |
| 1788008471 | 25° C | 49% | 1012.4 hPa | 0 mm | - | 262 W/m² | - |
| 1788007871 | 25° C | 50% | 1012.4 hPa | 0 mm | - | 778 W/m² | - |
| 1788007274 | 25° C | 51% | 1012.5 hPa | 0 mm | - | 348 W/m² | - |
| 1788006672 | 25° C | 51% | 1012.6 hPa | 0 mm | - | 386 W/m² | - |
| 1788006071 | 24.44° C | 51% | 1012.6 hPa | 0 mm | - | 163 W/m² | - |
| 1788005472 | 24.44° C | 50% | 1012.6 hPa | 0 mm | - | 768 W/m² | - |
| 1788004877 | 25° C | 52% | 1012.8 hPa | 0 mm | - | 755 W/m² | - |
| 1788004271 | 24.44° C | 51% | 1012.9 hPa | 0 mm | - | 769 W/m² | - |
| 1788003671 | 24.44° C | 52% | 1012.8 hPa | 0 mm | - | 612 W/m² | - |
| 1788003071 | 23.89° C | 52% | 1012.9 hPa | 0 mm | - | 655 W/m² | - |
| 1788002471 | 23.89° C | 54% | 1013 hPa | 0 mm | - | 584 W/m² | - |
| 1788001871 | 23.33° C | 53% | 1013.1 hPa | 0 mm | - | 708 W/m² | - |
| 1788001271 | 23.89° C | 53% | 1013.1 hPa | 0 mm | - | 730 W/m² | - |
| 1788000671 | 23.33° C | 55% | 1013.1 hPa | 0 mm | - | 652 W/m² | - |
| 1788000070 | 23.33° C | 56% | 1013.2 hPa | 0 mm | - | 181 W/m² | - |
| 1787999471 | 23.33° C | 57% | 1013.2 hPa | 0 mm | - | 452 W/m² | - |
| 1787998871 | 22.78° C | 58% | 1013.3 hPa | 0 mm | - | 793 W/m² | - |
* Rain latest hour (hover to see other rain measurements)
** Current wind speed in m/s (hover to see current wind gust speed)